#timestamp,LO_Frequency,Hit,StdDev 
1509616815.8,286046999.7,N
1509616835.6,286046999.7,N
1509616855.5,286047002.7,N
1509616875.3,286046999.5,N
1509616895.1,286047000.7,N
1509616915.9,286046999.9,N
1509616935.7,286047002.6,N
1509616955.5,286047002.8,N
1509616975.4,286047000.7,N
1509616995.2,286047000.1,N
1509617015.0,286047000.3,N
1509617016.0,286047000.3,N
1509617035.8,286047000.6,N
1509617055.6,286047000.5,N
1509617075.5,286046998.7,N
1509617095.3,286046998.7,N
1509617115.1,286046996.7,N
1509617135.9,286046997.3,N
1509617155.7,286046996.7,N
1509617175.6,286046996.6,N
1509617195.4,286046995.5,N
1509617215.2,286046995.7,N
1509617235.1,286046996.7,N
1509617236.0,286046996.7,N
1509617255.8,286047001.0,N
1509617275.7,286047000.6,N
1509617295.5,286047001.0,N
1509617315.3,286047001.2,N
1509617335.2,286047000.4,N
1509617355.0,286046999.7,N
1509617355.9,286046999.7,N
1509617375.7,286046999.6,N
1509617395.6,286046996.8,N
1509617415.4,286046997.3,N
1509617435.3,286046998.0,N
1509617455.1,286046997.2,N
1509617456.0,286046997.2,N
1509617475.8,286046995.2,N
1509617495.7,286046994.9,N
1509617515.5,286046995.5,N
1509617535.3,286046995.0,N
1509617555.2,286046994.9,N
1509617575.0,286046997.3,N
1509617575.9,286046997.3,N
1509617595.8,286046994.9,N
1509617615.6,286046997.9,N
1509617635.4,286046995.1,N
1509617655.3,286046997.5,N
1509617675.1,286046997.7,N
1509617695.8,286046997.5,N
1509617715.7,286046995.3,N
1509617735.5,286046995.2,N
1509617755.4,286046996.0,N
1509617775.2,286046995.8,N
1509617795.0,286046996.2,N
1509617795.9,286046996.2,N
1509617815.8,286046994.8,N
1509617835.6,286046993.6,Y
1509617855.5,286046996.8,P
1509617875.3,286046998.0,P
1509617895.1,286046995.5,P
1509617915.9,286046996.3,Y
1509617935.7,286046997.0,P
1509617955.5,286046998.6,P
1509617975.4,286046998.4,N
1509617995.2,286047000.7,N
1509618015.1,286047000.6,N
1509618016.0,286047000.6,N
1509618035.8,286046999.8,N
1509618055.6,286047000.9,N
1509618075.5,286047000.9,N
1509618095.3,286047000.5,N
1509618115.1,286046999.8,N
1509618135.9,286047001.0,N
1509618155.7,286047000.5,N
1509618175.6,286047000.2,N
1509618195.4,286047000.3,N
1509618215.2,286047001.5,N
1509618235.1,286047000.1,N
1509618236.0,286047000.1,N
1509618255.8,286047000.8,N
1509618275.6,286047001.2,N
1509618295.5,286047000.9,N
1509618315.3,286046999.9,N
1509618335.2,286047002.4,N
1509618355.9,286047001.1,N
1509618375.7,286047002.8,N
1509618395.6,286047000.1,N
1509618415.4,286047002.3,N
1509618435.2,286046999.7,N
1509618455.1,286047002.3,N
1509618456.0,286047002.3,N
1509618475.8,286047002.0,N
1509618495.7,286047002.8,N
1509618515.5,286046998.1,N
1509618535.3,286046999.7,N
1509618555.2,286047002.4,N
1509618575.0,286047000.1,N
1509618575.9,286047000.1,N
1509618595.7,286046999.9,N
1509618615.6,286047001.2,N
1509618635.4,286046999.8,N
1509618655.3,286047000.6,N
1509618675.1,286046998.1,N
1509618695.8,286046998.4,N
1509618715.7,286047002.0,N
1509618735.5,286047000.7,N
1509618755.4,286046998.3,N
1509618775.2,286047001.1,N
1509618795.0,286046999.8,N
1509618795.9,286046999.8,N
1509618815.8,286047002.4,N
1509618835.6,286046998.2,N
1509618855.4,286047000.3,N
1509618875.3,286047000.5,N
1509618895.1,286047000.1,N
1509618915.9,286047000.7,N
1509618935.7,286047002.7,N
1509618955.5,286047000.4,N
1509618975.4,286047000.2,N
1509618995.2,286047002.6,N
1509619015.0,286047000.6,N
1509619015.9,286047000.6,N
1509619035.8,286047001.1,N
1509619055.6,286046999.8,N
1509619075.5,286047000.8,N
1509619095.3,286047000.6,N
1509619115.1,286047000.1,N
1509619135.9,286047000.5,N
1509619155.7,286046998.5,N
1509619175.5,286047001.9,N
1509619195.4,286047001.0,N
1509619215.2,286046999.1,N
1509619235.1,286046999.2,N
1509619236.0,286046999.2,N
1509619255.8,286046996.7,N
1509619275.6,286046995.4,Y
1509619295.5,286046995.4,P
1509619315.3,286046994.9,N
1509619335.1,286046997.6,N
1509619355.9,286046996.8,N
1509619375.7,286046996.5,N
1509619395.6,286046999.0,N
1509619415.4,286046999.1,N
1509619435.2,286046996.9,N
1509619455.1,286046997.7,N
1509619456.0,286046997.7,N
1509619475.8,286046997.5,N
1509619495.6,286046994.9,Y
1509619515.5,286047001.0,P
1509619535.3,286046998.7,N
1509619555.2,286046996.5,N
1509619575.9,286046999.6,N
1509619595.7,286047000.3,N
1509619615.6,286046998.4,N
1509619635.4,286046998.8,N
1509619655.2,286046998.2,N
1509619675.1,286046998.2,N
1509619676.0,286046998.2,N
1509619695.8,286046999.9,N
1509619715.7,286047000.6,N
1509619735.5,286047000.1,N
1509619755.3,286047002.8,N
1509619775.2,286047002.6,N
1509619795.0,286047004.3,N
1509619795.9,286047004.3,N
1509619815.7,286047002.4,N
1509619835.6,286047002.5,N
1509619855.4,286047002.3,N
1509619875.3,286047001.4,N
1509619895.1,286047001.6,N
1509619896.0,286047001.6,N
1509619915.8,286047002.0,N
1509619935.7,286047002.3,N
1509619955.5,286047003.5,N
1509619975.3,286047002.9,N
1509619995.2,286047004.2,N
1509620015.0,286047003.9,N
1509620015.9,286047003.9,N
1509620035.8,286047004.3,N
1509620055.6,286047011.9,Y
1509620075.4,286046999.0,P
1509620095.3,286046999.1,N
1509620115.1,286046998.3,N
1509620135.9,286046998.1,N
1509620155.7,286047000.6,N
1509620175.5,286047000.1,N
1509620195.4,286046999.7,N
1509620215.2,286046999.7,N
1509620235.0,286047000.7,N
1509620235.9,286047000.7,N
1509620255.8,286047002.8,N
1509620275.6,286047001.4,N
1509620295.5,286047004.3,Y
1509620315.3,286047004.0,P
1509620335.1,286047001.5,N
1509620355.9,286047004.3,N
1509620375.7,286047003.0,N
1509620395.5,286047003.5,N
